COSMOS 1481 DEB, 48345

Orbit data source: Space-Track

COSMOS 1481 DEB, 48345 is space debris in HEO originally from a launch on Fri, 08 Jul 1983 UTC launched from the Plesetsk Missile And Space Complex (PKMTR). Debris objects in space refer to the collection of defunct objects orbiting the Earth. Examples of debris include non-operational satellites, rocket bodies, and fragments generated from explosions, collisions, or faulty payload assembly.

Loading next visibility...
Identifier
48345, 1983-070M
Orbit
HEO
Country
Flag of CISCIS
Related business
Manufacturer
Unknown
Mission
Spacecraft
Bus & Motor
Unknown
Mass
Unknown
Launch date (UTC)
1983-07-08 (43 years ago)
Launch vehicle
Unknown
Launch site
Plesetsk Missile And Space Complex (PKMTR)
Object type
Payload
Rocket body
Debris
Shape & HBR
Unknown shape, 0.4 m
Radar Cross Section
Medium (>0.1 m² and <1 m²)

Expand to show TLE details & history
Last TLE update: 9 months ago

TLE from 9 months ago
0 COSMOS 1481 DEB
1 48345U 83070M   25258.84933451 -.00000020  00000-0  00000-0 0  9994
2 48345  65.5443  89.5271 6839262 331.6575   4.0281  2.00094374 86177
Epoch: 2025-09-15T20:23Z
TLE epoch observation values (Epoch: 2025-09-15T20:23:02.501Z)
Latitude
0.00003°
Longitude
148.74343°
Altitude
2,476.513 km
Speed
8.664 km/s
True Right ascension
05h 58m 12s
True Declination
0° 00' 00"
Sunlit
Object was in daylight at epoch
Visualization orbit readout
Latitude
Unknown
Longitude
Unknown
Altitude
Unknown
Speed
Unknown
Apparent Right ascension
Unknown
Apparent Declination
Unknown
Sunlit
N/A
Visualization observer readout
Local Sidereal Time
21:26:59
Azimuth
Unknown
Elevation
Unknown
Doppler factor
Unknown
Orbital elements
Apogee altitude
38,415.707 km
Perigee altitude
2,029.69 km
Semi-major axis
26,600.836 km
Eccentricity
0.68393
Inclination
65.5443°
RAAN
89.5271°
Arg. of periapsis
331.6575°
True anomaly
28.4356°
Mean anomaly
4.0281°
Eccentric anomaly
12.52865°
Mean motion
0.50027 °/min
Orbital period
719.62 mins
BSTAR
0
Loading maneuver chart data...
Computing Atmospheric mass density...
Loading historical data...
Loading historical data...
Loading historical data...
Loading historical data...
Loading historical data...
Loading historical data...
Loading historical data...

Documentation

Showing up to 5 results
|